Weather History for Tupelo, MS

Change the Weather History Date:

Monday, August 19, 2013

  Actual Average Record
Temperature  
Mean Temperature 76 °F 81 °F  
Max Temperature 81 °F 92 °F 104 °F (1999)
Min Temperature 70 °F 70 °F 59 °F (1977)
Degree Days  
Heating Degree Days 0 0  
Month to date heating degree days 0 0  
Since 1 June heating degree days 0 0  
Since 1 July heating degree days 0 0  
Cooling Degree Days 11 16  
Month to date cooling degree days 276 308  
Year to date cooling degree days 1399 1490  
Since 1 June cooling degree days 1153 1213  
Growing Degree Days 26 (Base 50)    
Moisture  
Dew Point 69 °F    
Average Humidity 83    
Maximum Humidity 97    
Minimum Humidity 69    
Precipitation  
Precipitation T in 0.11 in 1.04 in (1965)
Month to date precipitation 3.84 2.29  
Year to date precipitation 37.25 35.31  
Snow  
Snow 0.00 in 0.00 in - ()
Month to date snowfall 0.0 0.0  
Since 1 June snowfall 0.0 0.0  
Since 1 July snowfall 0.0 0.0  
Snow Depth 0.00 in    
Sea Level Pressure  
Sea Level Pressure 30.06 in    
Wind  
Wind Speed 4 mph (ENE)    
Max Wind Speed 10 mph    
Max Gust Speed 14 mph    
Visibility 10 miles    
Events      
T = Trace of Precipitation, MM = Missing Value Source: NWS Daily Summary

Daily Weather History Graph

Daily Weather History Graph

Search for Another Location

Airport:

Trip Planner

Search our weather history database for the weather conditions in past years. The results will help you decide how hot, cold, wet, or windy it might be!

Date:

Astronomy

Aug. 19, 2013 Rise Set
Actual Time 6:19 AM CDT 7:37 PM CDT
Civil Twilight 5:53 AM CDT 8:03 PM CDT
Nautical Twilight 5:21 AM CDT 8:34 PM CDT
Astronomical Twilight 4:49 AM CDT 9:07 PM CDT
Moon 6:28 PM CDT (8/19) 4:39 AM CDT (8/19)
Length of Visible Light 14h 10m
Length of Day
13h 17m
Waxing Gibbous, 97% of the Moon is Illuminated
Aug 19
Waxing Gibbous
Aug 20
Full
Aug 28
Last Quarter
Sep 5
New
Sep 12
First Quarter

Hourly Weather History & Observations

Time (CDT) Temp. Heat Index Dew Point Humidity Pressure Visibility Wind Dir Wind Speed Gust Speed Precip Events Conditions
12:53 AM 71.1 °F - 68.0 °F 90% 30.08 in 10.0 mi Calm Calm - N/A   Overcast
1:53 AM 71.1 °F - 68.0 °F 90% 30.06 in 10.0 mi NE 5.8 mph - N/A   Overcast
2:53 AM 70.0 °F - 68.0 °F 93% 30.05 in 10.0 mi NNE 4.6 mph - N/A   Overcast
3:53 AM 71.1 °F - 68.0 °F 90% 30.04 in 10.0 mi East 3.5 mph - N/A   Overcast
4:53 AM 71.1 °F - 68.0 °F 90% 30.05 in 10.0 mi Calm Calm - N/A   Overcast
5:15 AM 71.6 °F - 68.0 °F 88% 30.06 in 10.0 mi Calm Calm - N/A   Overcast
5:39 AM 71.6 °F - 68.0 °F 88% 30.07 in 10.0 mi East 3.5 mph - N/A   Overcast
5:53 AM 71.1 °F - 68.0 °F 90% 30.06 in 10.0 mi SE 5.8 mph - N/A   Overcast
6:53 AM 71.1 °F - 68.0 °F 90% 30.06 in 10.0 mi ENE 3.5 mph - N/A   Overcast
7:06 AM 71.6 °F - 68.0 °F 88% 30.08 in 10.0 mi Calm Calm - N/A   Overcast
7:53 AM 72.0 °F - 68.0 °F 87% 30.08 in 10.0 mi NE 3.5 mph - N/A   Overcast
8:02 AM 71.6 °F - 68.0 °F 88% 30.09 in 10.0 mi ENE 3.5 mph - N/A   Overcast
8:53 AM 73.9 °F - 69.1 °F 85% 30.08 in 10.0 mi NE 5.8 mph - N/A   Overcast
9:30 AM 75.2 °F - 69.8 °F 83% 30.10 in 10.0 mi NE 4.6 mph - N/A   Overcast
9:53 AM 75.9 °F - 69.1 °F 79% 30.09 in 10.0 mi NNE 6.9 mph - N/A   Overcast
10:08 AM 75.2 °F - 69.8 °F 83% 30.10 in 10.0 mi NNE 6.9 mph - N/A   Overcast
10:49 AM 77.0 °F - 69.8 °F 78% 30.10 in 10.0 mi East 4.6 mph - N/A   Overcast
10:53 AM 77.0 °F - 69.1 °F 76% 30.09 in 10.0 mi NE 5.8 mph - N/A   Overcast
11:53 AM 78.1 °F - 69.1 °F 74% 30.08 in 10.0 mi NE 8.1 mph - N/A   Overcast
12:53 PM 77.0 °F - 70.0 °F 79% 30.07 in 10.0 mi NE 4.6 mph - 0.00 in   Overcast
1:05 PM 77.0 °F - 71.6 °F 83% 30.08 in 6.0 mi ESE 3.5 mph - N/A   Haze
1:53 PM 77.0 °F - 69.1 °F 76% 30.05 in 10.0 mi East 8.1 mph - N/A   Overcast
2:53 PM 80.1 °F 83.6 °F 71.1 °F 74% 30.04 in 10.0 mi Variable 3.5 mph - N/A   Overcast
3:53 PM 79.0 °F - 71.1 °F 77% 30.01 in 10.0 mi ENE 8.1 mph - 0.00 in   Overcast
4:53 PM 80.1 °F 82.9 °F 69.1 °F 69% 30.00 in 10.0 mi East 6.9 mph - N/A   Overcast
5:53 PM 80.1 °F 83.2 °F 70.0 °F 71% 30.00 in 10.0 mi East 4.6 mph - N/A   Overcast
6:53 PM 80.1 °F 83.6 °F 71.1 °F 74% 30.00 in 10.0 mi ESE 3.5 mph - N/A   Overcast
7:53 PM 78.1 °F - 71.1 °F 79% 30.01 in 10.0 mi Calm Calm - N/A   Partly Cloudy
8:53 PM 77.0 °F - 71.1 °F 82% 30.01 in 10.0 mi ENE 3.5 mph - N/A   Overcast
9:53 PM 75.9 °F - 72.0 °F 87% 30.03 in 10.0 mi ENE 3.5 mph - N/A   Overcast
10:53 PM 75.0 °F - 71.1 °F 87% 30.04 in 10.0 mi Calm Calm - N/A   Scattered Clouds
11:53 PM 73.0 °F - 71.1 °F 93% 30.04 in 10.0 mi Calm Calm - N/A   Overcast